Current weather by "City, St" or "zip code"  
 

Current Conditions: Artesia Municipal Airport, NM

Fair


68.0 F

Last Updated on Sep 18 2020, 1:55 am MDT
Humidity: 60%
Wind Speed: SE 8.1 mph
Barometer 30.23 in
Dewpoint: 53.6 F
Visibility: 10.00 mi
Precip: --
Heat Index: NA
Wind Chill: NA
Current conditions at:

Artesia Municipal Airport, NM (KATS)

Lat: 32.85239 Lon: 104.46444

Local Radar Image active severe weather and emergency alerts image image weather storm and storm spotter reports image weather observation monitoring service image
Local
Radar
Active
Alerts
Storm Reports Obs
Monitoring

Sign-up For Email & Text Message Weather Alert Notification Services



Advertise Here

Observation History for Artesia Municipal Airport, NM


Time Wind
(mph)
Vis
(mi)
Weather Precip (in) Temperature (F) Relative
Humidity
Wind
Chill
(F)
Heat
Index
(F)
Pressure
Air Dwpt altimeter
(in)
sea level
(mb)
Rmks
1:55 am MDT SE 8.1 10.00 Fair -- 68.0 53.6 60% NA NA 30.23 M
12:55 am MDT E 5.8 10.00 Fair -- 70.0 53.6 57% NA NA 30.23 M
11:55 pm MDT E 4.6 10.00 Partly Cloudy -- 70.0 50.0 50% NA NA 30.23 M
10:55 pm MDT N 0.0 10.00 A Few Clouds -- 72.0 50.0 47% NA NA 30.21 M
9:55 pm MDT SW 4.6 10.00 Fair -- 73.0 50.0 44% NA NA 30.20 M
8:55 pm MDT S 6.9 10.00 Partly Cloudy -- 77.0 51.8 42% NA NA 30.20 M
7:55 pm MDT SE 5.8 10.00 Overcast -- 81.0 51.8 37% NA 80 30.17 M
6:55 pm MDT NE 6.9 10.00 A Few Clouds -- 82.0 50.0 32% NA 81 30.15 M
5:55 pm MDT NE 9.2 10.00 Fair -- 84.0 48.2 29% NA 82 30.15 M
4:55 pm MDT NE 8.1 10.00 Fair -- 84.0 48.2 29% NA 82 30.15 M
3:55 pm MDT NW 4.6 G 15.0 10.00 Fair -- 84.0 48.2 29% NA 82 30.16 M
2:55 pm MDT 6.9 G 12.7 10.00 Fair -- 82.0 48.2 30% NA 81 30.18 M
1:55 pm MDT 4.6 10.00 Fair -- 82.0 50.0 32% NA 81 30.21 M
12:55 pm MDT SE 6.9 G 15.0 10.00 Fair -- 79.0 55.4 45% NA NA 30.25 M
11:55 am MDT SE 3.5 10.00 Fair -- 77.0 55.4 47% NA NA 30.27 M
10:55 am MDT E 5.8 10.00 Fair -- 73.0 55.4 53% NA NA 30.29 M
9:55 am MDT 5.8 10.00 Fair -- 70.0 53.6 57% NA NA 30.29 M
8:55 am MDT N 12.7 10.00 Fair -- 68.0 50.0 53% NA NA 30.28 M
7:55 am MDT N 10.4 10.00 A Few Clouds -- 63.0 48.2 60% 62 NA 30.27 M
6:55 am MDT N 6.9 10.00 A Few Clouds -- 59.0 46.4 63% 58 NA 30.25 M
5:55 am MDT NW 6.9 10.00 Fair -- 59.0 44.6 59% 58 NA 30.22 M
4:55 am MDT NW 5.8 10.00 Fair -- 61.0 44.6 55% 61 NA 30.21 M
3:55 am MDT NW 9.2 10.00 Fair -- 64.0 46.4 52% NA NA 30.20 M
2:55 am MDT W 4.6 10.00 Fair -- 63.0 44.6 52% 64 NA 30.19 M

Regional Weather Observation


Artesia Municipal Airport, NM (KATS)

Fair
68.0 F

Carlsbad, Cavern City Air Terminal Airport, NM (KCNM)

Mostly Cloudy
68.0 F

Sierra Blanca Regional Airport, NM (KSRR)

Mostly Cloudy
55.0 F

Alamogordo-White, NM (KALM)

Fair
68.0 F

Hobbs / Lea County, NM (KHOB)

Fair
63.0 F

Pine Springs, Guadalupe Mountains National Park, TX (KGDP)

Partly Cloudy
64.0 F